Flag for Liechtenstein Weather past 2 weeks in Vaduz, Liechtenstein

Now
79 °F

Warm.


Feels Like: 80 °F
Forecast: 59 / 77 °F
Wind: 7 mph from Northwest

Location: Vaduz

Current Time: Jul 25, 2014 at 4:30:02 PM

Latest Report: Jul 25, 2014 at 3:00 PM


Visibility: N/A

Pressure: 29.84 "Hg

Humidity: 49%

Dew point: 58 °F

Location of VaduzLocation

Historic Weather in Vaduz — Graph

°F

Vaduz temperature yesterday

Maximum temperature yesterday: 76 °F (at 6:00 PM)
Minimum temperature yesterday: 59 °F (at 6:00 AM)
Average temperature yesterday: 65 °F

Past Weeks' High & Low Weather Summary

 TemperatureHumidityPressure
High91 °F (Jul 19, 2:00 PM)97% (Jul 24, 6:00 AM)30.16 "Hg (Jul 24, 6:00 AM)
Low57 °F (Jul 25, 1:00 AM)25% (Jul 18, 6:00 PM)29.75 "Hg (Jul 20, 7:00 AM)
Average71 °F64%29.94 "Hg
* Reported Jul 10 5:00 PM — Jul 25 3:00 PM, Vaduz, Weather by CustomWeather, © 2014

Note: Actual official high and low records may vary slightly from our data, if they occured in-between our weather recording intervals... More about our weather records

Advertising

Vaduz weather history for previous 24 hours

 ConditionsComfort  
Time TempWeatherWind HumidityBarometerVisibility
3:00 PM
Jul 25
79 °FWarm.7 mph49%29.84 "HgN/A
2:00 PM78 °FWarm.6 mph51%29.85 "HgN/A
1:40 PM77 °FWarm.6 mph48%29.85 "HgN/A
1:00 PM76 °FMild.2 mph51%29.87 "HgN/A
12:00 PM73 °FMild.2 mph56%29.90 "HgN/A
11:00 AM71 °FMild.5 mph61%29.91 "HgN/A
10:00 AM68 °FMild.3 mph61%29.93 "HgN/A
9:00 AM65 °FMild.5 mph64%29.94 "HgN/A
8:00 AM61 °FCool.6 mph71%29.96 "HgN/A
7:00 AM61 °FCool.6 mph72%29.96 "HgN/A
6:00 AM61 °FCool.6 mph72%29.96 "HgN/A
5:00 AM62 °FFog.5 mph71%29.95 "Hg6 mi
4:00 AM62 °FCool.5 mph73%29.94 "HgN/A
3:00 AM62 °FCool.3 mph71%29.94 "HgN/A
2:00 AM60 °FFog.3 mph79%29.95 "Hg5 mi
1:00 AM57 °FCool.No wind94%29.96 "HgN/A
12:00 AM59 °FCool.No wind90%29.96 "HgN/A
11:00 PM
Jul 24
62 °FFog.No wind82%29.94 "Hg5 mi
10:00 PM65 °FMild.2 mph67%29.92 "HgN/A
9:00 PM67 °FMild.5 mph64%29.89 "HgN/A
8:00 PM69 °FScattered clouds.5 mph66%29.86 "Hg9 mi
7:00 PM72 °FMild.3 mph62%29.83 "HgN/A
6:00 PM76 °FMild.5 mph58%29.82 "HgN/A
5:00 PM75 °FMild.1 mph54%29.83 "HgN/A
4:00 PM74 °FMild.2 mph58%29.85 "HgN/A
Weather by CustomWeather, © 2014

See weather overviewHow to use our weather pages